Вернуться в каталог

STARLINK-5471

АктивенСвязьVLEO
NORAD 54766·PAYLOAD·🇺🇸 United States

Запущен Dec 17, 2022 с Cape Canaveral Space Force Station

Loading…

Ближайшие Пролёты (ближайшие 24 часа)

TLE

СвежийSource: CelesTrak SupGP

Эпоха: Sep 15, 2026, 02:15 UTC

1 54766C 22175J   26258.09423611 -.00005335  00000+0 -33455-3 0  2582
2 54766  53.1585 273.2143 0001108  84.2041 243.9861 15.08840134    16

Отслеживайте STARLINK-5471 в реальном времени с AllMySat

Download on the App Store